GFSNIL_prec_precacc24_201.txt.gz
Total_Precipitation_Accumulation
0.17 0.15 0.12 0.10 0.08 0.04 0.01 0.00 0.00 0.00 0.00 0.00 0.00 0.00 0.00 0.00 0.00 0.00 0.00 0.00 0.00 0.00
0.01 0.00 0.00 0.00 0.00 0.00 0.00 0.00 0.00 0.00 0.00 0.00 0.00 0.00 0.00 0.00 0.00 0.00 0.00 0.00 0.00 0.00
0.01 0.00 0.00 0.00 0.00 0.00 0.00 0.00 0.00 0.00 0.00 0.00 0.00 0.00 0.00 0.00 0.00 0.00 0.00 0.00 0.00 0.00
0.07 0.03 0.00 0.00 0.00 0.01 0.00 0.00 0.00 0.00 0.00 0.00 0.00 0.00 0.00 0.00 0.00 0.00 0.00 0.00 0.00 0.00
0.07 0.07 0.02 0.01 0.00 0.00 0.00 0.00 0.00 0.00 0.00 0.00 0.00 0.00 0.00 0.00 0.00 0.00 0.00 0.00 0.00 0.00
0.04 0.04 0.04 0.02 0.00 0.00 0.01 0.03 0.03 0.01 0.00 0.00 0.00 0.00 0.00 0.00 0.00 0.00 0.00 0.00 0.00 0.00
0.06 0.08 0.05 0.02 0.01 0.01 0.02 0.02 0.02 0.01 0.00 0.00 0.00 0.00 0.00 0.00 0.00 0.00 0.00 0.00 0.00 0.00
0.10 0.08 0.04 0.01 0.00 0.01 0.05 0.09 0.09 0.07 0.06 0.04 0.01 0.01 0.00 0.00 0.00 0.00 0.00 0.00 0.00 0.00
0.06 0.05 0.03 0.01 0.00 0.00 0.01 0.03 0.07 0.11 0.13 0.13 0.11 0.09 0.06 0.01 0.00 0.00 0.00 0.00 0.00 0.00
0.04 0.04 0.03 0.01 0.00 0.00 0.01 0.01 0.03 0.07 0.11 0.11 0.07 0.05 0.03 0.01 0.00 0.00 0.00 0.00 0.00 0.00
0.01 0.01 0.03 0.07 0.10 0.09 0.05 0.03 0.03 0.03 0.04 0.05 0.06 0.05 0.02 0.00 0.00 0.00 0.00 0.00 0.00 0.00
0.02 0.01 0.04 0.09 0.13 0.17 0.21 0.15 0.11 0.06 0.03 0.01 0.00 0.01 0.01 0.00 0.00 0.00 0.00 0.00 0.00 0.00
0.00 0.00 0.02 0.08 0.17 0.21 0.20 0.23 0.27 0.21 0.08 0.02 0.00 0.00 0.00 0.00 0.00 0.00 0.00 0.00 0.00 0.00
0.02 0.02 0.02 0.03 0.07 0.10 0.12 0.18 0.18 0.14 0.09 0.04 0.01 0.00 0.00 0.00 0.00 0.00 0.00 0.00 0.00 0.00

GFSNIL_prec_precacc24_207.txt.gz
Total_Precipitation_Accumulation
0.18 0.16 0.14 0.13 0.13 0.10 0.08 0.06 0.05 0.06 0.07 0.06 0.05 0.04 0.03 0.02 0.01 0.01 0.00 0.00 0.00 0.00
0.01 0.01 0.01 0.02 0.03 0.07 0.09 0.12 0.13 0.12 0.10 0.10 0.09 0.06 0.06 0.05 0.02 0.00 0.00 0.00 0.00 0.00
0.01 0.01 0.03 0.08 0.16 0.20 0.21 0.21 0.20 0.19 0.16 0.13 0.12 0.09 0.04 0.02 0.01 0.01 0.00 0.00 0.00 0.00
0.24 0.22 0.11 0.10 0.18 0.24 0.22 0.17 0.12 0.09 0.07 0.05 0.04 0.03 0.02 0.01 0.00 0.00 0.00 0.00 0.00 0.00
0.52 0.49 0.30 0.12 0.12 0.18 0.22 0.19 0.10 0.03 0.01 0.01 0.00 0.00 0.00 0.00 0.00 0.00 0.00 0.00 0.00 0.00
0.15 0.14 0.13 0.11 0.05 0.01 0.06 0.15 0.15 0.10 0.05 0.02 0.01 0.01 0.01 0.00 0.00 0.00 0.00 0.00 0.00 0.00
0.09 0.12 0.10 0.05 0.03 0.02 0.02 0.02 0.03 0.06 0.08 0.04 0.02 0.02 0.03 0.01 0.00 0.00 0.00 0.00 0.00 0.00
0.16 0.14 0.08 0.07 0.03 0.02 0.05 0.09 0.09 0.08 0.08 0.10 0.08 0.08 0.07 0.07 0.05 0.02 0.00 0.00 0.00 0.00
0.06 0.05 0.06 0.06 0.04 0.01 0.02 0.04 0.07 0.12 0.13 0.13 0.15 0.16 0.14 0.11 0.10 0.07 0.02 0.00 0.00 0.00
0.04 0.04 0.04 0.03 0.02 0.01 0.02 0.04 0.10 0.14 0.14 0.12 0.08 0.07 0.06 0.06 0.06 0.08 0.08 0.05 0.02 0.00
0.01 0.01 0.03 0.07 0.10 0.09 0.06 0.04 0.05 0.08 0.09 0.10 0.08 0.07 0.03 0.01 0.02 0.02 0.03 0.04 0.04 0.02
0.02 0.01 0.04 0.09 0.13 0.18 0.23 0.20 0.16 0.15 0.18 0.15 0.06 0.03 0.02 0.01 0.00 0.00 0.00 0.00 0.00 0.02
0.00 0.01 0.02 0.08 0.19 0.28 0.35 0.44 0.59 0.54 0.37 0.30 0.23 0.09 0.00 0.00 0.00 0.00 0.00 0.00 0.00 0.00
0.02 0.02 0.02 0.03 0.09 0.22 0.30 0.41 0.42 0.42 0.40 0.27 0.12 0.06 0.00 0.00 0.00 0.00 0.00 0.00 0.00 0.00

GFSNIL_prec_precacc24_210.txt.gz
Total_Precipitation_Accumulation
0.18 0.16 0.14 0.13 0.13 0.10 0.08 0.06 0.06 0.08 0.12 0.14 0.14 0.14 0.11 0.12 0.13 0.12 0.13 0.13 0.17 0.11
0.01 0.01 0.01 0.03 0.03 0.07 0.10 0.13 0.14 0.15 0.16 0.18 0.19 0.16 0.16 0.16 0.15 0.12 0.11 0.10 0.09 0.09
0.04 0.01 0.05 0.15 0.21 0.21 0.24 0.26 0.25 0.27 0.30 0.31 0.32 0.28 0.20 0.13 0.12 0.11 0.08 0.07 0.05 0.07
0.37 0.46 0.43 0.28 0.24 0.27 0.31 0.29 0.22 0.18 0.20 0.22 0.24 0.24 0.22 0.18 0.14 0.10 0.08 0.06 0.05 0.02
0.57 0.60 0.38 0.20 0.14 0.20 0.30 0.34 0.29 0.17 0.13 0.13 0.13 0.14 0.14 0.14 0.13 0.10 0.07 0.04 0.02 0.01
0.24 0.19 0.14 0.12 0.06 0.02 0.08 0.22 0.31 0.28 0.21 0.07 0.02 0.04 0.06 0.05 0.04 0.03 0.02 0.01 0.00 0.00
0.12 0.16 0.12 0.06 0.03 0.02 0.03 0.03 0.04 0.08 0.11 0.06 0.02 0.02 0.03 0.02 0.01 0.00 0.00 0.00 0.00 0.00
0.16 0.15 0.10 0.10 0.03 0.02 0.05 0.09 0.09 0.08 0.09 0.13 0.10 0.08 0.07 0.07 0.06 0.03 0.01 0.01 0.01 0.00
0.06 0.06 0.07 0.07 0.04 0.02 0.03 0.04 0.07 0.12 0.13 0.14 0.15 0.16 0.14 0.11 0.11 0.09 0.04 0.03 0.02 0.00
0.05 0.05 0.06 0.05 0.02 0.01 0.02 0.05 0.10 0.14 0.14 0.12 0.09 0.09 0.07 0.06 0.06 0.08 0.08 0.06 0.02 0.00
0.01 0.01 0.03 0.07 0.10 0.10 0.06 0.05 0.05 0.08 0.10 0.10 0.08 0.11 0.09 0.03 0.02 0.02 0.03 0.04 0.04 0.03
0.01 0.01 0.04 0.09 0.13 0.18 0.25 0.21 0.16 0.16 0.20 0.16 0.08 0.05 0.06 0.05 0.01 0.00 0.01 0.00 0.00 0.02
0.00 0.00 0.02 0.08 0.19 0.28 0.36 0.48 0.62 0.57 0.40 0.33 0.31 0.25 0.15 0.05 0.00 0.00 0.00 0.00 0.00 0.00
0.00 0.00 0.01 0.03 0.09 0.23 0.32 0.46 0.53 0.59 0.51 0.42 0.33 0.30 0.24 0.07 0.01 0.00 0.00 0.00 0.00 0.00

GFSNIL_prec_precacc24_216.txt.gz
Total_Precipitation_Accumulation
0.18 0.16 0.14 0.13 0.13 0.10 0.08 0.06 0.06 0.08 0.12 0.14 0.15 0.15 0.14 0.17 0.24 0.33 0.46 0.57 0.72 0.68
0.01 0.01 0.01 0.03 0.03 0.07 0.10 0.13 0.14 0.15 0.16 0.19 0.20 0.17 0.17 0.19 0.23 0.32 0.43 0.61 0.70 0.74
0.06 0.03 0.06 0.15 0.22 0.22 0.24 0.26 0.25 0.28 0.31 0.32 0.33 0.31 0.24 0.20 0.21 0.24 0.34 0.49 0.69 0.69
0.47 0.52 0.49 0.32 0.25 0.27 0.31 0.29 0.23 0.20 0.22 0.24 0.27 0.27 0.26 0.24 0.22 0.21 0.25 0.36 0.52 0.55
0.65 0.65 0.42 0.23 0.16 0.22 0.31 0.35 0.29 0.22 0.23 0.25 0.24 0.21 0.20 0.23 0.22 0.21 0.22 0.25 0.35 0.39
0.30 0.23 0.19 0.15 0.08 0.03 0.08 0.23 0.35 0.36 0.33 0.24 0.14 0.18 0.19 0.16 0.13 0.13 0.14 0.16 0.22 0.29
0.13 0.22 0.17 0.11 0.05 0.04 0.03 0.03 0.05 0.10 0.18 0.25 0.21 0.16 0.12 0.11 0.05 0.04 0.04 0.04 0.08 0.11
0.16 0.15 0.11 0.14 0.05 0.03 0.06 0.11 0.11 0.09 0.10 0.17 0.27 0.25 0.11 0.08 0.08 0.04 0.02 0.03 0.04 0.04
0.06 0.06 0.08 0.07 0.05 0.03 0.05 0.06 0.09 0.13 0.14 0.15 0.18 0.25 0.21 0.12 0.11 0.09 0.05 0.05 0.05 0.04
0.05 0.05 0.07 0.07 0.03 0.02 0.05 0.07 0.11 0.13 0.15 0.13 0.11 0.16 0.11 0.08 0.06 0.08 0.08 0.06 0.03 0.02
0.01 0.01 0.04 0.10 0.12 0.11 0.08 0.05 0.05 0.09 0.10 0.10 0.12 0.23 0.21 0.15 0.06 0.02 0.03 0.04 0.04 0.03
0.00 0.00 0.03 0.08 0.13 0.18 0.25 0.21 0.17 0.16 0.21 0.18 0.13 0.15 0.16 0.18 0.12 0.03 0.01 0.00 0.00 0.02
0.00 0.00 0.01 0.07 0.18 0.28 0.36 0.49 0.64 0.59 0.44 0.42 0.43 0.46 0.35 0.29 0.25 0.12 0.02 0.00 0.00 0.00
0.00 0.00 0.00 0.02 0.09 0.22 0.32 0.47 0.55 0.67 0.68 0.52 0.47 0.57 0.59 0.43 0.35 0.21 0.09 0.04 0.02 0.00

GFSNIL_prec_precacc24_222.txt.gz
Total_Precipitation_Accumulation
0.16 0.15 0.14 0.13 0.13 0.10 0.08 0.06 0.06 0.08 0.12 0.14 0.15 0.15 0.14 0.17 0.24 0.33 0.46 0.58 0.77 0.81
0.01 0.01 0.01 0.03 0.03 0.07 0.10 0.13 0.14 0.15 0.16 0.19 0.20 0.17 0.17 0.19 0.23 0.32 0.43 0.61 0.71 0.80
0.06 0.03 0.06 0.15 0.22 0.22 0.24 0.26 0.25 0.28 0.31 0.32 0.33 0.31 0.24 0.20 0.21 0.24 0.35 0.51 0.74 0.79
0.47 0.52 0.49 0.32 0.26 0.28 0.31 0.30 0.23 0.20 0.22 0.24 0.27 0.27 0.27 0.25 0.23 0.23 0.27 0.40 0.60 0.70
0.64 0.65 0.42 0.23 0.16 0.22 0.31 0.36 0.31 0.23 0.23 0.25 0.24 0.21 0.21 0.24 0.24 0.25 0.27 0.30 0.45 0.53
0.29 0.23 0.19 0.15 0.08 0.03 0.08 0.23 0.35 0.36 0.33 0.24 0.14 0.18 0.22 0.23 0.23 0.22 0.22 0.25 0.34 0.43
0.11 0.21 0.17 0.10 0.05 0.03 0.01 0.02 0.05 0.10 0.18 0.26 0.22 0.17 0.14 0.18 0.15 0.13 0.16 0.17 0.23 0.30
0.11 0.15 0.11 0.14 0.05 0.02 0.02 0.04 0.07 0.08 0.13 0.20 0.28 0.26 0.13 0.11 0.13 0.08 0.06 0.12 0.15 0.19
0.03 0.05 0.08 0.07 0.05 0.04 0.05 0.06 0.06 0.08 0.11 0.16 0.19 0.26 0.22 0.13 0.11 0.10 0.06 0.07 0.07 0.11
0.01 0.03 0.06 0.07 0.03 0.03 0.07 0.09 0.10 0.11 0.10 0.13 0.13 0.17 0.12 0.09 0.07 0.08 0.10 0.08 0.05 0.05
0.00 0.00 0.01 0.03 0.04 0.07 0.08 0.06 0.06 0.08 0.09 0.11 0.14 0.25 0.21 0.18 0.09 0.07 0.09 0.09 0.08 0.04
0.00 0.00 0.00 0.02 0.03 0.07 0.16 0.18 0.15 0.15 0.19 0.17 0.13 0.16 0.17 0.22 0.14 0.08 0.06 0.03 0.01 0.02
0.00 0.00 0.00 0.02 0.06 0.11 0.20 0.37 0.56 0.51 0.38 0.41 0.42 0.47 0.38 0.35 0.27 0.18 0.06 0.01 0.00 0.00
0.00 0.01 0.01 0.02 0.06 0.16 0.24 0.38 0.46 0.57 0.59 0.48 0.49 0.62 0.69 0.53 0.38 0.25 0.12 0.06 0.03 0.00